Location: Latina
(41.4670°N, 12.8670°E)
Time: 16:35:55
(UTC+02:00)

ISS - Pass Details

Date: 18 May 2021
Orbit: 417 x 422 km, 51.6° (Epoch: 18 June)

Event Time Altitude Azimuth Distance (km) Brightness Sun altitude
Rises 22:52:28 0° 284° (WNW) 2,363 0.8 -21.5°
Reaches altitude 10° 22:55:06 10° 306° (NW) 1,501 0.0 -21.8°
Maximum altitude 22:57:23 17° 349° (NNW) 1,153 -0.7 -22.0°
Drops below altitude 10° 22:59:41 10° 32° (NNE) 1,505 -0.6 -22.3°
Sets 23:02:20 0° 53° (NE) 2,372 0.1 -22.5°
